| time (UTC) | temp F | wind direction | speed knots | gust knots | rain 1hr in | rain 24hr in | rain mn in | humidity % | barometer mb |
| 20260504060238 | 57 | 202 | 0.9 | 0.9 | 0.04 | 0.67 | 0.04 | 98 | 1014.0 |
| 20260504045738 | 57 | 158 | 1.7 | 1.7 | 0.00 | 0.63 | 0.00 | 98 | 1013.0 |
| 20260504045238 | 57 | 112 | 0.0 | 0.0 | 0.00 | 0.63 | 0.00 | 98 | 1014.0 |
| 20260504044736 | 57 | 202 | 0.9 | 0.9 | 0.00 | 0.63 | 0.00 | 98 | 1014.0 |
| 20260504043739 | 57 | 266 | 1.7 | 2.6 | 0.00 | 0.63 | 0.00 | 98 | 1013.0 |
| 20260504043239 | 57 | 160 | 0.9 | 0.9 | 0.00 | 0.63 | 0.00 | 98 | 1013.0 |
| 20260504042738 | 57 | 202 | 1.7 | 1.7 | 0.00 | 0.63 | 0.00 | 98 | 1013.0 |
| 20260504041739 | 57 | 270 | 0.0 | 0.9 | 0.00 | 0.63 | 0.00 | 98 | 1013.0 |
| 20260504040737 | 57 | 270 | 0.0 | 0.0 | 0.00 | 0.63 | 0.00 | 98 | 1014.0 |
| 20260504035736 | 58 | 210 | 0.9 | 0.9 | 0.00 | 0.63 | 0.00 | 98 | 1014.0 |
| 20260504034740 | 58 | 248 | 1.7 | 2.6 | 0.00 | 0.63 | 0.00 | 98 | 1015.0 |
| 20260504034237 | 57 | 232 | 3.5 | 2.6 | 0.00 | 0.63 | 0.00 | 98 | 1015.0 |
| 20260504033736 | 57 | 270 | 2.6 | 2.6 | 0.00 | 0.63 | 0.00 | 98 | 1014.0 |
| 20260504032740 | 57 | 193 | 0.9 | 1.7 | 0.00 | 0.63 | 0.00 | 98 | 1014.0 |
| 20260504032310 | 57 | 248 | 0.9 | 1.7 | 0.00 | 0.63 | 0.00 | 98 | 1014.0 |
| 20260504032239 | 57 | 248 | 0.9 | 1.7 | 0.00 | 0.63 | 0.00 | 98 | 1014.0 |
| 20260504031239 | 57 | 248 | 1.7 | 2.6 | 0.00 | 0.63 | 0.00 | 98 | 1014.0 |
| 20260504030737 | 57 | 248 | 1.7 | 1.7 | 0.00 | 0.63 | 0.00 | 98 | 1014.0 |
| 20260504024737 | 57 | 315 | 0.0 | 0.0 | 0.00 | 0.63 | 0.00 | 98 | 1013.0 |
| 20260504022739 | 57 | 315 | 0.0 | 0.9 | 0.00 | 0.63 | 0.00 | 98 | 1013.0 |
| 20260504022320 | 57 | 315 | 0.0 | 0.0 | 0.00 | 0.63 | 0.00 | 98 | 1013.0 |
| 20260504022240 | 57 | 315 | 0.0 | 0.0 | 0.00 | 0.63 | 0.00 | 98 | 1013.0 |
| 20260504021942 | 57 | 315 | 0.9 | 1.7 | 0.00 | 0.63 | 0.00 | 98 | 1013.0 |
| 20260504021737 | 57 | 315 | 0.9 | 1.7 | 0.00 | 0.63 | 0.00 | 98 | 1013.0 |
| 20260504021241 | 57 | 315 | 0.0 | 1.7 | 0.00 | 0.63 | 0.00 | 98 | 1013.0 |
| 20260504014736 | 57 | 315 | 0.9 | 1.7 | 0.00 | 0.63 | 0.00 | 98 | 1013.0 |
| 20260504013739 | 57 | 319 | 2.6 | 2.6 | 0.00 | 0.63 | 0.00 | 98 | 1012.0 |
| 20260504012737 | 57 | 338 | 1.7 | 1.7 | 0.00 | 0.63 | 0.00 | 98 | 1012.0 |
| 20260504011736 | 57 | 0 | 1.7 | 1.7 | 0.00 | 0.63 | 0.00 | 98 | 1012.0 |
| 20260504010736 | 57 | 338 | 1.7 | 2.6 | 0.00 | 0.63 | 0.00 | 98 | 1013.0 |
| 20260504010239 | 57 | 328 | 1.7 | 1.7 | 0.00 | 0.63 | 0.00 | 98 | 1013.0 |
| 20260504005737 | 57 | 292 | 1.7 | 1.7 | 0.00 | 0.63 | 0.00 | 98 | 1013.0 |
| 20260504004737 | 57 | 270 | 0.0 | 0.0 | 0.00 | 0.63 | 0.00 | 98 | 1012.0 |
| 20260504004239 | 57 | 90 | 0.0 | 0.0 | 0.00 | 0.63 | 0.00 | 98 | 1012.0 |
| 20260504003237 | 57 | 90 | 0.0 | 0.0 | 0.00 | 0.63 | 0.00 | 98 | 1012.0 |
| 20260504002240 | 57 | 45 | 0.0 | 0.0 | 0.00 | 0.63 | 0.00 | 98 | 1013.0 |
| 20260504000738 | 57 | 338 | 0.0 | 0.0 | 0.00 | 0.63 | 0.00 | 98 | 1013.0 |
| 20260503234738 | 57 | 22 | 0.0 | 0.0 | 0.00 | 0.63 | 0.00 | 98 | 1013.0 |
| 20260503234237 | 57 | 22 | 0.9 | 0.9 | 0.00 | 0.63 | 0.00 | 98 | 1013.0 |
| 20260503233740 | 57 | 22 | 0.0 | 0.0 | 0.00 | 0.67 | 0.00 | 98 | 1013.0 |
| 20260503232237 | 57 | 0 | 0.0 | 0.0 | 0.00 | 0.67 | 0.00 | 98 | 1013.0 |
| 20260503230738 | 57 | 10 | 0.0 | 0.9 | 0.00 | 0.67 | 0.00 | 98 | 1014.0 |
| 20260503225811 | 57 | 112 | 0.0 | 0.0 | 0.00 | 0.67 | 0.00 | 98 | 1014.0 |
| 20260503225739 | 57 | 112 | 0.0 | 0.0 | 0.00 | 0.67 | 0.00 | 98 | 1014.0 |
| 20260503224919 | 57 | 112 | 0.0 | 0.9 | 0.00 | 0.67 | 0.00 | 98 | 1014.0 |
| 20260503224741 | 57 | 112 | 0.0 | 0.9 | 0.00 | 0.67 | 0.00 | 98 | 1014.0 |
| 20260503223818 | 57 | 112 | 0.9 | 0.0 | 0.00 | 0.67 | 0.00 | 98 | 1014.0 |
| 20260503223736 | 57 | 112 | 0.9 | 0.0 | 0.00 | 0.67 | 0.00 | 98 | 1014.0 |
| 20260503223236 | 58 | 112 | 0.0 | 0.0 | 0.00 | 0.67 | 0.00 | 98 | 1014.0 |
| 20260503221812 | 58 | 112 | 0.0 | 0.9 | 0.00 | 0.67 | 0.00 | 98 | 1014.0 |
| 20260503221739 | 58 | 112 | 0.0 | 0.9 | 0.00 | 0.67 | 0.00 | 98 | 1014.0 |
| 20260503220810 | 58 | 112 | 0.9 | 0.9 | 0.00 | 0.67 | 0.00 | 98 | 1014.0 |
| 20260503220737 | 58 | 112 | 0.9 | 0.9 | 0.00 | 0.67 | 0.00 | 98 | 1014.0 |
| 20260503214740 | 57 | 0 | 0.0 | 0.0 | 0.00 | 0.67 | 0.67 | 98 | 1013.0 |
| 20260503214238 | 57 | 90 | 0.0 | 0.0 | 0.00 | 0.67 | 0.67 | 98 | 1013.0 |
| 20260503213739 | 57 | 90 | 0.9 | 1.7 | 0.00 | 0.67 | 0.67 | 98 | 1014.0 |
| 20260503213237 | 57 | 90 | 0.0 | 0.0 | 0.00 | 0.67 | 0.67 | 98 | 1014.0 |
| 20260503212736 | 57 | 90 | 0.0 | 0.0 | 0.00 | 0.67 | 0.67 | 98 | 1014.0 |
| 20260503212240 | 57 | 90 | 0.0 | 0.9 | 0.00 | 0.67 | 0.67 | 98 | 1014.0 |
| 20260503211736 | 57 | 90 | 0.9 | 1.7 | 0.00 | 0.67 | 0.67 | 98 | 1014.0 |
| 20260503211242 | 57 | 90 | 0.9 | 0.9 | 0.00 | 0.67 | 0.67 | 98 | 1014.0 |
| 20260503210739 | 57 | 76 | 1.7 | 1.7 | 0.00 | 0.67 | 0.67 | 98 | 1014.0 |
| 20260503210239 | 57 | 112 | 0.0 | 0.9 | 0.00 | 0.67 | 0.67 | 98 | 1014.0 |
| 20260503205740 | 58 | 90 | 1.7 | 2.6 | 0.00 | 0.67 | 0.67 | 98 | 1014.0 |
| 20260503204740 | 58 | 110 | 2.6 | 2.6 | 0.00 | 0.67 | 0.67 | 98 | 1014.0 |
| 20260503204237 | 58 | 73 | 2.6 | 2.6 | 0.00 | 0.67 | 0.67 | 98 | 1014.0 |
| 20260503203239 | 58 | 0 | 0.9 | 0.9 | 0.00 | 0.67 | 0.67 | 98 | 1014.0 |
| 20260503202737 | 58 | 1 | 2.6 | 3.5 | 0.00 | 0.67 | 0.67 | 98 | 1014.0 |
| 20260503202241 | 58 | 22 | 1.7 | 1.7 | 0.00 | 0.67 | 0.67 | 98 | 1014.0 |
| 20260503201737 | 58 | 338 | 2.6 | 3.5 | 0.00 | 0.67 | 0.67 | 98 | 1014.0 |
| 20260503201238 | 58 | 322 | 1.7 | 3.5 | 0.00 | 0.67 | 0.67 | 98 | 1014.0 |
| 20260503200237 | 57 | 332 | 3.5 | 4.3 | 0.00 | 0.67 | 0.67 | 98 | 1014.0 |
| 20260503195739 | 57 | 350 | 2.6 | 3.5 | 0.00 | 0.67 | 0.67 | 98 | 1014.0 |
| 20260503195237 | 57 | 13 | 1.7 | 2.6 | 0.00 | 0.67 | 0.67 | 98 | 1013.0 |
| 20260503194313 | 57 | 348 | 2.6 | 3.5 | 0.04 | 0.67 | 0.67 | 98 | 1013.0 |
| 20260503194239 | 57 | 348 | 2.6 | 3.5 | 0.04 | 0.67 | 0.67 | 98 | 1013.0 |
| 20260503192239 | 57 | 16 | 1.7 | 2.6 | 0.09 | 0.67 | 0.67 | 98 | 1013.0 |
| 20260503191739 | 57 | 45 | 1.7 | 1.7 | 0.09 | 0.67 | 0.67 | 98 | 1013.0 |
| 20260503191240 | 57 | 22 | 0.9 | 0.9 | 0.09 | 0.67 | 0.67 | 98 | 1013.0 |
| 20260503190737 | 57 | 45 | 0.9 | 1.7 | 0.09 | 0.67 | 0.67 | 98 | 1013.0 |
| 20260503185238 | 58 | 32 | 1.7 | 2.6 | 0.09 | 0.67 | 0.67 | 98 | 1013.0 |
| 20260503183834 | 58 | 68 | 1.7 | 2.6 | 0.09 | 0.63 | 0.63 | 98 | 1013.0 |
| 20260503183737 | 58 | 68 | 1.7 | 2.6 | 0.09 | 0.63 | 0.63 | 98 | 1013.0 |
| 20260503182237 | 58 | 105 | 1.7 | 2.6 | 0.04 | 0.57 | 0.57 | 98 | 1013.0 |
| 20260503181237 | 58 | 22 | 1.7 | 1.7 | 0.08 | 0.57 | 0.57 | 98 | 1013.0 |
| 20260503180930 | 58 | 102 | 2.6 | 2.6 | 0.16 | 0.57 | 0.57 | 98 | 1012.0 |
| 20260503180837 | 58 | 102 | 2.6 | 2.6 | 0.16 | 0.57 | 0.57 | 98 | 1012.0 |
| 20260503180737 | 58 | 102 | 2.6 | 2.6 | 0.16 | 0.57 | 0.57 | 98 | 1012.0 |
| 20260503180238 | 58 | 23 | 0.9 | 1.7 | 0.24 | 0.57 | 0.57 | 98 | 1012.0 |
| 20260503175839 | 58 | 338 | 2.6 | 2.6 | 0.29 | 0.57 | 0.57 | 98 | 1012.0 |
| 20260503175736 | 58 | 338 | 2.6 | 2.6 | 0.29 | 0.57 | 0.57 | 98 | 1012.0 |
| 20260503175310 | 59 | 6 | 3.5 | 4.3 | 0.37 | 0.57 | 0.57 | 98 | 1012.0 |
| 20260503175236 | 59 | 6 | 3.5 | 4.3 | 0.37 | 0.57 | 0.57 | 98 | 1012.0 |
| 20260503174738 | 58 | 22 | 1.7 | 3.5 | 0.41 | 0.57 | 0.57 | 98 | 1012.0 |
| 20260503174321 | 58 | 29 | 1.7 | 3.5 | 0.45 | 0.63 | 0.57 | 97 | 1012.0 |
| 20260503174239 | 58 | 29 | 1.7 | 3.5 | 0.45 | 0.63 | 0.57 | 97 | 1012.0 |
| 20260503173839 | 58 | 1 | 2.6 | 3.5 | 0.41 | 0.63 | 0.54 | 97 | 1012.0 |
| 20260503173737 | 58 | 1 | 2.6 | 3.5 | 0.41 | 0.63 | 0.54 | 97 | 1012.0 |
| 20260503173237 | 58 | 65 | 1.7 | 1.7 | 0.41 | 0.63 | 0.54 | 97 | 1012.0 |
| 20260503172736 | 58 | 43 | 1.7 | 2.6 | 0.46 | 0.67 | 0.54 | 95 | 1012.0 |
| 20260503172236 | 58 | 17 | 4.3 | 5.2 | 0.46 | 0.71 | 0.54 | 94 | 1013.0 |
| 20260503171738 | 58 | 354 | 2.6 | 3.5 | 0.41 | 0.67 | 0.49 | 93 | 1013.0 |
| 20260503171310 | 58 | 347 | 2.6 | 4.3 | 0.41 | 0.67 | 0.49 | 92 | 1013.0 |
| 20260503171238 | 58 | 347 | 2.6 | 4.3 | 0.41 | 0.67 | 0.49 | 92 | 1013.0 |
| 20260503170737 | 58 | 329 | 4.3 | 7.0 | 0.33 | 0.59 | 0.41 | 90 | 1013.0 |
| 20260503170237 | 58 | 274 | 8.7 | 9.6 | 0.30 | 0.54 | 0.33 | 88 | 1013.0 |
| 20260503150737 | 69 | 109 | 5.2 | 3.5 | 0.00 | 0.28 | 0.03 | 65 | 1012.0 |
| 20260503150237 | 69 | 78 | 4.3 | 4.3 | 0.00 | 0.28 | 0.03 | 65 | 1012.0 |
| 20260503140314 | 71 | 93 | 2.6 | 4.3 | 0.00 | 0.28 | 0.03 | 62 | 1012.0 |
| 20260503140236 | 71 | 93 | 2.6 | 4.3 | 0.00 | 0.28 | 0.03 | 62 | 1012.0 |
| 20260503131313 | 72 | 91 | 3.5 | 7.0 | 0.00 | 0.28 | 0.03 | 60 | 1013.0 |
| 20260503131238 | 72 | 91 | 3.5 | 7.0 | 0.00 | 0.28 | 0.03 | 60 | 1013.0 |
| 20260503130810 | 72 | 47 | 4.3 | 4.3 | 0.00 | 0.28 | 0.03 | 61 | 1013.0 |
| 20260503130737 | 72 | 47 | 4.3 | 4.3 | 0.00 | 0.28 | 0.03 | 61 | 1013.0 |
| 20260503130310 | 72 | 99 | 5.2 | 8.7 | 0.00 | 0.28 | 0.03 | 65 | 1013.0 |
| 20260503130237 | 72 | 99 | 5.2 | 8.7 | 0.00 | 0.28 | 0.03 | 65 | 1013.0 |
| 20260503110738 | 67 | 97 | 1.7 | 1.7 | 0.00 | 0.28 | 0.03 | 73 | 1016.0 |
| 20260503110237 | 67 | 31 | 0.9 | 2.6 | 0.00 | 0.28 | 0.03 | 72 | 1016.0 |
| 20260503100237 | 66 | 38 | 0.9 | 1.7 | 0.00 | 0.28 | 0.03 | 76 | 1016.0 |
| 20260503090238 | 66 | 171 | 0.9 | 2.6 | 0.00 | 0.28 | 0.03 | 92 | 1016.0 |
| 20260503081312 | 62 | 78 | 1.7 | 3.5 | 0.00 | 0.28 | 0.03 | 97 | 1015.0 |
| 20260503081236 | 62 | 78 | 1.7 | 3.5 | 0.00 | 0.28 | 0.03 | 97 | 1015.0 |
| 20260503080830 | 62 | 140 | 2.6 | 2.6 | 0.00 | 0.28 | 0.03 | 97 | 1016.0 |
| 20260503080738 | 62 | 140 | 2.6 | 2.6 | 0.00 | 0.28 | 0.03 | 97 | 1016.0 |
| 20260503080237 | 61 | 152 | 0.9 | 0.9 | 0.00 | 0.28 | 0.03 | 97 | 1016.0 |
| 20260503072736 | 60 | 99 | 2.6 | 2.6 | 0.00 | 0.28 | 0.03 | 98 | 1016.0 |
| 20260503072310 | 60 | 90 | 1.7 | 2.6 | 0.00 | 0.28 | 0.03 | 98 | 1016.0 |
| 20260503072236 | 60 | 90 | 1.7 | 2.6 | 0.00 | 0.28 | 0.03 | 98 | 1016.0 |
| 20260503071829 | 60 | 117 | 1.7 | 2.6 | 0.00 | 0.28 | 0.03 | 98 | 1016.0 |
| 20260503071739 | 60 | 117 | 1.7 | 2.6 | 0.00 | 0.28 | 0.03 | 98 | 1016.0 |
| 20260503071237 | 59 | 112 | 2.6 | 2.6 | 0.00 | 0.28 | 0.03 | 98 | 1016.0 |
| 20260503070737 | 59 | 149 | 2.6 | 3.5 | 0.00 | 0.28 | 0.03 | 98 | 1016.0 |
| 20260503070237 | 59 | 90 | 1.7 | 0.9 | 0.00 | 0.28 | 0.03 | 98 | 1016.0 |